QPF
0.00 0.00 0.00 0.00 0.00 0.00 0.00 0.00 0.00 0.00 0.00 0.00 0.00 0.00 0.00 0.00 0.00 0.00 0.00 0.00 0.01 0.01 0.00 0.01 0.01 0.01 0.01 0.01 0.01 0.01 0.01 0.01 0.01 0.01 0.01 0.00 0.00 0.02
0.00 0.00 0.00 0.00 0.00 0.00 0.00 0.00 0.00 0.00 0.00 0.00 0.00 0.00 0.00 0.00 0.00 0.00 0.01 0.01 0.00 0.01 0.01 0.00 0.00 0.01 0.01 0.01 0.01 0.01 0.01 0.00 0.00 0.00 0.00 0.00 0.00 0.00
0.00 0.00 0.00 0.00 0.00 0.00 0.00 0.00 0.00 0.00 0.00 0.00 0.00 0.00 0.00 0.00 0.00 0.00 0.00 0.00 0.00 0.00 0.01 0.01 0.00 0.00 0.01 0.00 0.01 0.01 0.01 0.00 0.00 0.00 0.00 0.00 0.00 0.00
0.00 0.00 0.00 0.00 0.00 0.00 0.00 0.00 0.00 0.00 0.00 0.00 0.00 0.00 0.00 0.00 0.00 0.00 0.00 0.00 0.00 0.00 0.00 0.01 0.01 0.00 0.01 0.01 0.01 0.01 0.01 0.01 0.01 0.00 0.00 0.00 0.00 0.01
0.00 0.00 0.00 0.00 0.00 0.00 0.00 0.00 0.00 0.00 0.00 0.00 0.00 0.00 0.00 0.00 0.00 0.00 0.00 0.00 0.00 0.00 0.00 0.00 0.01 0.00 0.00 0.00 0.00 0.00 0.01 0.01 0.01 0.01 0.00 0.00 0.00 0.01
0.00 0.00 0.00 0.00 0.00 0.00 0.00 0.00 0.00 0.00 0.00 0.00 0.00 0.00 0.00 0.00 0.00 0.00 0.00 0.00 0.00 0.00 0.00 0.00 0.00 0.00 0.00 0.00 0.00 0.00 0.00 0.01 0.01 0.01 0.00 0.01 0.00 0.01
0.00 0.00 0.00 0.00 0.00 0.00 0.00 0.00 0.00 0.00 0.00 0.00 0.00 0.00 0.00 0.00 0.00 0.00 0.00 0.00 0.00 0.00 0.00 0.00 0.00 0.00 0.00 0.00 0.00 0.00 0.00 0.01 0.01 0.01 0.00 0.00 0.00 0.00
0.00 0.00 0.00 0.00 0.00 0.00 0.00 0.00 0.00 0.00 0.00 0.00 0.00 0.00 0.00 0.00 0.00 0.00 0.00 0.00 0.00 0.00 0.00 0.00 0.00 0.00 0.00 0.00 0.00 0.00 0.00 0.00 0.00 0.01 0.00 0.00 0.01 0.00
0.00 0.00 0.00 0.00 0.00 0.00 0.00 0.00 0.00 0.00 0.00 0.00 0.00 0.00 0.00 0.00 0.00 0.00 0.00 0.00 0.00 0.00 0.00 0.00 0.00 0.00 0.01 0.00 0.00 0.00 0.00 0.00 0.00 0.00 0.00 0.00 0.00 0.00
0.00 0.00 0.00 0.00 0.00 0.00 0.00 0.00 0.00 0.00 0.00 0.01 0.00 0.00 0.00 0.00 0.00 0.00 0.00 0.00 0.00 0.00 0.00 0.00 0.00 0.00 0.00 0.00 0.00 0.00 0.00 0.00 0.00 0.00 0.01 0.00 0.00 0.00
0.00 0.00 0.00 0.00 0.00 0.00 0.00 0.00 0.00 0.00 0.00 0.00 0.00 0.00 0.00 0.00 0.00 0.00 0.00 0.00 0.00 0.00 0.00 0.00 0.00 0.00 0.00 0.00 0.00 0.00 0.00 0.00 0.00 0.00 0.00 0.01 0.00 0.00
0.00 0.00 0.00 0.00 0.00 0.00 0.00 0.00 0.00 0.00 0.00 0.00 0.00 0.00 0.00 0.00 0.00 0.00 0.00 0.00 0.00 0.00 0.00 0.00 0.00 0.00 0.00 0.00 0.00 0.00 0.00 0.00 0.00 0.00 0.00 0.00 0.00 0.00
0.00 0.00 0.00 0.00 0.00 0.00 0.00 0.00 0.00 0.00 0.00 0.00 0.00 0.00 0.00 0.00 0.00 0.00 0.00 0.00 0.00 0.00 0.00 0.00 0.00 0.00 0.00 0.00 0.00 0.00 0.00 0.00 0.00 0.00 0.00 0.00 0.00 0.01
0.00 0.00 0.00 0.00 0.00 0.00 0.00 0.00 0.00 0.00 0.00 0.00 0.00 0.00 0.00 0.00 0.00 0.00 0.00 0.00 0.00 0.00 0.00 0.00 0.00 0.00 0.00 0.00 0.00 0.00 0.00 0.00 0.00 0.00 0.00 0.00 0.00 0.00
0.00 0.00 0.00 0.00 0.00 0.00 0.00 0.00 0.00 0.00 0.00 0.00 0.00 0.00 0.00 0.00 0.00 0.00 0.00 0.00 0.00 0.00 0.00 0.00 0.00 0.00 0.00 0.00 0.00 0.00 0.00 0.00 0.00 0.00 0.00 0.00 0.00 0.00
0.00 0.00 0.00 0.00 0.00 0.00 0.00 0.00 0.00 0.00 0.00 0.00 0.00 0.00 0.00 0.00 0.00 0.00 0.00 0.00 0.00 0.00 0.00 0.00 0.00 0.00 0.00 0.00 0.00 0.00 0.00 0.00 0.00 0.00 0.00 0.00 0.00 0.00
0.00 0.00 0.00 0.00 0.00 0.00 0.00 0.00 0.00 0.00 0.00 0.00 0.00 0.00 0.00 0.00 0.00 0.00 0.00 0.00 0.00 0.00 0.00 0.00 0.00 0.00 0.00 0.00 0.00 0.00 0.00 0.00 0.00 0.00 0.00 0.00 0.00 0.00
0.00 0.00 0.00 0.00 0.00 0.00 0.00 0.00 0.00 0.00 0.00 0.00 0.00 0.00 0.00 0.00 0.00 0.00 0.00 0.00 0.00 0.00 0.00 0.00 0.00 0.00 0.00 0.00 0.00 0.00 0.00 0.00 0.00 0.00 0.00 0.00 0.00 0.00
0.00 0.00 0.00 0.00 0.00 0.00 0.00 0.00 0.00 0.00 0.00 0.00 0.00 0.00 0.00 0.00 0.00 0.00 0.00 0.00 0.00 0.00 0.00 0.00 0.00 0.00 0.00 0.00 0.00 0.00 0.00 0.00 0.00 0.00 0.00 0.00 0.00 0.00
0.00 0.00 0.00 0.00 0.00 0.00 0.00 0.00 0.00 0.00 0.00 0.00 0.00 0.00 0.00 0.00 0.00 0.00 0.00 0.00 0.00 0.00 0.00 0.00 0.00 0.00 0.00 0.00 0.00 0.00 0.00 0.00 0.00 0.00 0.00 0.00 0.00 0.00
0.00 0.00 0.00 0.00 0.00 0.00 0.00 0.00 0.00 0.00 0.00 0.00 0.00 0.00 0.00 0.00 0.00 0.00 0.00 0.00 0.00 0.00 0.00 0.00 0.00 0.00 0.00 0.00 0.00 0.00 0.00 0.00 0.00 0.00 0.00 0.00 0.00 0.00
0.00 0.00 0.00 0.00 0.00 0.00 0.00 0.00 0.00 0.00 0.00 0.00 0.00 0.00 0.00 0.00 0.00 0.00 0.00 0.00 0.00 0.00 0.00 0.00 0.00 0.00 0.00 0.00 0.00 0.00 0.00 0.00 0.00 0.00 0.00 0.00 0.01 0.01
0.00 0.00 0.00 0.00 0.00 0.00 0.00 0.00 0.00 0.00 0.00 0.00 0.00 0.00 0.00 0.00 0.00 0.00 0.00 0.00 0.00 0.00 0.00 0.00 0.00 0.00 0.00 0.00 0.00 0.00 0.00 0.00 0.00 0.00 0.00 0.00 0.00 0.00
MSLP
1025.24 1025.23 1025.40 1025.57 1025.59 1025.40 1025.23 1025.18 1025.19 1024.95 1024.22 1023.56 1023.45 1023.34 1023.11 1022.34 1021.74 1021.26 1020.77 1019.88 1019.54 1018.98 1018.53 1017.88 1017.02 1016.24 1015.50 1014.62 1013.71 1012.69 1011.59 1010.77 1009.95 1008.91 1008.11 1007.21 1006.26 1005.25
1025.71 1025.71 1025.79 1025.95 1026.08 1025.87 1025.69 1025.69 1025.60 1025.45 1025.07 1024.29 1024.36 1024.18 1023.69 1023.01 1022.29 1021.83 1021.20 1020.35 1019.93 1019.38 1018.71 1018.15 1017.65 1016.94 1016.08 1015.14 1014.21 1013.13 1012.00 1011.33 1010.62 1009.61 1008.76 1007.87 1006.85 1005.99
1025.96 1026.15 1026.24 1026.56 1026.62 1026.32 1026.02 1026.17 1026.00 1025.87 1025.59 1024.91 1024.73 1024.58 1024.08 1023.62 1022.85 1022.27 1021.60 1020.84 1020.26 1019.71 1018.91 1018.38 1017.95 1017.27 1016.44 1015.55 1014.61 1013.63 1012.55 1011.59 1010.78 1010.16 1009.32 1008.43 1007.46 1006.74
1026.13 1026.35 1026.67 1027.03 1027.04 1026.69 1026.45 1026.49 1026.61 1026.38 1026.14 1025.76 1025.37 1025.15 1024.79 1024.27 1023.75 1022.94 1022.20 1021.52 1020.77 1020.16 1019.37 1018.96 1018.22 1017.68 1016.90 1016.09 1015.25 1014.45 1013.49 1012.35 1011.30 1010.53 1010.01 1009.25 1008.24 1007.27
1026.30 1026.37 1027.05 1027.27 1027.35 1027.29 1026.90 1026.80 1026.98 1026.81 1026.67 1026.44 1026.15 1025.89 1025.46 1024.95 1024.20 1023.44 1022.64 1022.26 1021.40 1020.84 1020.07 1019.35 1018.73 1018.14 1017.47 1016.66 1015.89 1015.02 1014.18 1013.23 1012.13 1011.10 1010.29 1009.63 1008.92 1007.93
1026.65 1026.54 1026.90 1027.18 1027.30 1027.47 1027.21 1027.08 1027.37 1027.25 1027.10 1026.94 1026.72 1026.47 1026.02 1025.51 1025.06 1024.23 1023.01 1022.71 1022.25 1021.69 1020.90 1019.97 1019.40 1018.71 1018.05 1017.34 1016.49 1015.77 1014.93 1013.95 1012.72 1011.69 1010.97 1010.15 1009.25 1008.27
1026.99 1026.90 1026.87 1026.70 1026.65 1027.10 1027.16 1027.26 1027.45 1027.84 1027.70 1027.61 1027.45 1027.19 1026.84 1026.28 1025.89 1025.42 1024.53 1023.28 1022.76 1022.58 1021.87 1020.89 1020.26 1019.66 1018.93 1018.11 1016.99 1016.28 1015.44 1014.60 1013.71 1012.66 1011.62 1010.80 1009.97 1009.05
1027.40 1027.69 1027.79 1027.34 1026.84 1026.64 1026.68 1026.82 1027.58 1027.69 1028.07 1028.14 1028.11 1028.24 1027.66 1027.26 1026.51 1025.94 1025.11 1024.31 1023.86 1023.29 1022.89 1021.91 1021.04 1020.23 1019.50 1018.76 1017.80 1016.75 1015.92 1015.11 1014.32 1013.36 1012.32 1011.51 1010.77 1009.68
1027.45 1027.77 1028.04 1027.92 1027.67 1027.94 1027.42 1027.06 1027.21 1027.20 1027.72 1028.04 1028.31 1028.23 1027.83 1027.47 1027.14 1026.24 1025.64 1025.35 1025.05 1024.19 1023.38 1022.70 1021.64 1020.89 1020.21 1019.56 1018.49 1017.68 1016.79 1015.80 1014.91 1014.05 1013.02 1012.01 1011.32 1010.73
1027.42 1027.64 1027.87 1027.98 1027.67 1027.78 1028.10 1027.68 1027.89 1028.18 1027.64 1027.60 1028.23 1028.00 1027.79 1027.13 1027.18 1026.80 1026.02 1025.44 1024.84 1024.53 1024.18 1023.86 1022.23 1021.66 1020.63 1020.10 1019.16 1018.38 1017.68 1016.82 1015.85 1014.84 1013.82 1012.86 1011.89 1011.13
1027.33 1027.57 1027.66 1027.71 1027.55 1027.45 1027.99 1027.85 1028.14 1028.20 1027.58 1027.26 1027.18 1027.01 1026.76 1026.33 1026.11 1026.21 1026.19 1025.88 1025.64 1025.33 1024.46 1024.49 1023.25 1022.37 1021.30 1020.75 1019.89 1019.08 1018.38 1017.48 1016.76 1015.86 1014.74 1013.66 1012.63 1011.98
1027.39 1027.46 1027.62 1027.67 1027.65 1027.69 1028.06 1028.12 1028.44 1029.07 1028.75 1028.38 1028.30 1027.76 1027.48 1027.03 1026.46 1026.64 1026.26 1025.95 1026.13 1025.86 1024.63 1024.72 1024.44 1023.60 1022.66 1021.30 1020.56 1019.78 1019.14 1018.22 1017.45 1016.65 1015.75 1014.70 1013.77 1013.13
1027.49 1027.78 1027.91 1027.60 1027.66 1027.68 1027.94 1028.18 1028.33 1029.34 1029.31 1029.03 1028.91 1028.81 1028.31 1027.66 1027.07 1026.44 1026.25 1025.87 1025.84 1025.81 1024.96 1024.65 1025.14 1024.53 1024.17 1023.19 1021.45 1020.34 1019.74 1019.01 1018.28 1017.46 1016.53 1015.62 1014.77 1013.86
1027.47 1027.90 1028.19 1027.60 1027.75 1027.80 1028.26 1027.90 1028.23 1029.17 1029.50 1029.49 1029.65 1029.60 1029.07 1028.47 1027.68 1026.84 1026.09 1025.77 1025.83 1025.86 1025.26 1024.85 1024.93 1024.83 1024.64 1024.04 1022.90 1021.07 1020.11 1019.49 1018.83 1018.09 1017.32 1016.40 1015.54 1014.76
1027.26 1027.63 1027.48 1027.55 1027.58 1028.24 1027.89 1028.29 1029.25 1029.74 1029.87 1030.49 1030.57 1030.31 1029.65 1029.05 1027.93 1027.10 1026.29 1025.95 1025.90 1025.76 1025.22 1025.03 1024.98 1024.56 1024.47 1024.21 1023.71 1022.29 1021.01 1020.08 1019.31 1018.61 1017.72 1017.02 1016.38 1015.53
1026.80 1027.23 1027.82 1028.07 1028.56 1028.96 1028.98 1029.28 1029.70 1030.09 1030.01 1030.44 1030.45 1029.87 1029.53 1028.59 1028.47 1028.45 1027.54 1027.17 1026.89 1026.36 1025.51 1025.01 1024.58 1024.70 1024.62 1023.96 1023.72 1022.87 1021.96 1021.48 1020.19 1019.19 1018.33 1017.56 1016.64 1015.97
1027.39 1027.68 1028.11 1028.44 1028.90 1029.11 1029.39 1029.76 1030.10 1029.89 1030.04 1030.14 1030.09 1029.96 1029.57 1029.02 1028.70 1028.39 1027.99 1027.77 1027.76 1027.16 1026.51 1025.59 1024.77 1024.34 1023.95 1023.83 1023.67 1023.13 1022.54 1021.74 1020.81 1019.87 1018.83 1018.16 1017.31 1016.55
1026.97 1027.72 1028.22 1028.69 1029.12 1029.46 1029.81 1030.13 1029.98 1029.90 1029.95 1029.99 1029.99 1029.92 1029.71 1029.26 1028.88 1028.58 1028.33 1028.26 1028.03 1027.52 1026.94 1026.23 1025.57 1024.84 1024.18 1023.82 1023.38 1023.26 1022.96 1022.35 1021.43 1020.55 1019.67 1018.89 1017.98 1017.11
1026.78 1027.37 1027.93 1028.47 1028.90 1029.17 1029.42 1029.69 1030.07 1029.73 1029.44 1029.83 1030.03 1030.01 1029.68 1029.27 1029.06 1028.92 1028.72 1028.62 1028.39 1027.91 1027.37 1026.79 1026.25 1025.72 1025.16 1024.87 1024.30 1023.70 1023.40 1022.79 1022.03 1021.20 1020.31 1019.55 1018.82 1017.78
1026.45 1026.99 1027.59 1028.07 1028.38 1028.82 1029.25 1029.55 1029.74 1029.77 1029.77 1029.99 1030.26 1030.28 1029.90 1029.62 1029.57 1029.45 1029.35 1029.18 1028.85 1028.35 1027.82 1027.34 1026.95 1026.51 1025.95 1025.60 1025.46 1024.87 1023.95 1023.39 1022.66 1021.82 1020.94 1019.98 1019.38 1018.13
1026.27 1026.72 1027.12 1027.56 1028.08 1028.59 1029.03 1029.37 1029.63 1029.89 1030.07 1030.30 1030.50 1030.43 1030.20 1030.00 1030.19 1029.88 1029.74 1029.64 1029.35 1028.84 1028.37 1027.93 1027.57 1027.04 1026.21 1025.77 1026.00 1025.36 1024.61 1023.94 1023.22 1022.34 1021.59 1020.60 1019.76 1018.70
1026.05 1026.52 1026.95 1027.31 1027.83 1028.36 1028.85 1029.26 1029.65 1029.94 1030.23 1030.52 1030.72 1030.63 1030.42 1030.20 1030.32 1030.24 1030.11 1029.96 1029.59 1029.27 1028.91 1028.50 1027.85 1027.29 1026.80 1026.55 1026.47 1025.93 1025.29 1024.62 1023.71 1022.97 1022.36 1021.63 1020.85 1019.81
1025.71 1026.21 1026.77 1027.19 1027.68 1028.17 1028.69 1029.17 1029.51 1029.87 1030.25 1030.61 1030.70 1030.60 1030.49 1030.46 1030.46 1030.37 1030.20 1029.99 1029.84 1029.63 1029.29 1029.00 1028.54 1028.12 1027.69 1027.34 1027.07 1026.64 1026.08 1025.35 1024.42 1023.50 1022.90 1022.22 1021.59 1020.94
Thickness
5390 5385 5378 5370 5364 5361 5359 5356 5352 5347 5352 5354 5351 5351 5351 5355 5358 5362 5366 5373 5378 5385 5391 5399 5410 5420 5430 5441 5452 5466 5480 5491 5505 5522 5534 5549 5564 5581
5379 5374 5368 5361 5355 5353 5351 5349 5346 5343 5342 5347 5343 5341 5344 5348 5352 5356 5360 5366 5371 5377 5384 5391 5398 5407 5417 5428 5438 5451 5465 5474 5483 5500 5514 5527 5544 5557
5370 5364 5358 5350 5346 5346 5345 5342 5340 5338 5338 5341 5339 5338 5340 5343 5348 5351 5354 5359 5365 5371 5378 5385 5390 5398 5407 5417 5426 5437 5450 5461 5469 5480 5494 5508 5522 5534
5362 5356 5348 5341 5338 5338 5338 5336 5332 5332 5331 5332 5332 5332 5333 5335 5337 5342 5346 5351 5356 5362 5369 5374 5381 5388 5396 5405 5413 5421 5432 5443 5454 5465 5474 5488 5500 5514
5353 5348 5337 5331 5329 5327 5329 5329 5326 5325 5324 5324 5323 5324 5325 5327 5331 5335 5339 5342 5347 5352 5358 5364 5371 5377 5384 5392 5399 5407 5416 5426 5436 5446 5459 5470 5480 5493
5343 5339 5332 5325 5321 5319 5320 5319 5317 5317 5316 5316 5316 5316 5317 5318 5318 5322 5330 5332 5335 5339 5346 5352 5357 5363 5368 5376 5384 5391 5399 5408 5421 5430 5439 5451 5463 5474
5332 5327 5323 5320 5319 5316 5314 5311 5309 5306 5306 5306 5306 5306 5307 5308 5308 5308 5314 5321 5324 5324 5329 5336 5341 5345 5351 5358 5368 5375 5384 5391 5400 5409 5420 5431 5442 5454
5318 5313 5311 5310 5310 5310 5308 5307 5304 5297 5294 5294 5290 5289 5293 5291 5300 5302 5304 5307 5308 5309 5310 5317 5323 5329 5333 5340 5347 5357 5365 5374 5382 5392 5401 5410 5419 5435
5310 5304 5302 5301 5299 5297 5297 5298 5296 5295 5293 5289 5286 5283 5283 5286 5285 5290 5291 5289 5290 5296 5299 5300 5308 5312 5316 5321 5327 5333 5341 5351 5360 5370 5380 5390 5400 5409
5302 5298 5295 5293 5291 5289 5287 5289 5287 5286 5288 5286 5282 5281 5281 5282 5280 5279 5278 5281 5283 5283 5285 5279 5288 5292 5298 5301 5306 5312 5317 5324 5333 5344 5356 5366 5378 5389
5294 5290 5286 5284 5282 5283 5280 5281 5278 5276 5277 5276 5275 5274 5273 5272 5271 5269 5266 5261 5257 5256 5264 5258 5265 5267 5272 5277 5281 5286 5292 5300 5307 5316 5328 5342 5355 5364
5286 5282 5279 5276 5274 5274 5271 5271 5266 5262 5262 5263 5262 5261 5259 5258 5257 5255 5253 5252 5240 5238 5241 5235 5233 5233 5236 5246 5252 5255 5262 5270 5278 5288 5300 5312 5326 5338
5277 5273 5271 5268 5266 5265 5264 5261 5258 5256 5253 5251 5248 5246 5245 5243 5241 5240 5238 5234 5224 5213 5218 5214 5206 5206 5200 5206 5216 5226 5231 5239 5247 5258 5271 5284 5296 5309
5270 5265 5262 5261 5258 5256 5255 5253 5250 5247 5243 5238 5233 5229 5226 5225 5226 5225 5223 5219 5212 5203 5201 5199 5193 5190 5183 5185 5191 5205 5214 5220 5225 5233 5242 5255 5268 5281
5265 5260 5257 5253 5251 5247 5246 5242 5239 5235 5228 5221 5215 5214 5214 5213 5213 5211 5208 5203 5197 5191 5189 5187 5183 5180 5174 5170 5172 5185 5194 5204 5210 5216 5224 5232 5241 5254
5259 5254 5249 5245 5242 5238 5235 5232 5229 5225 5218 5211 5206 5205 5205 5201 5195 5192 5186 5182 5175 5173 5176 5175 5172 5168 5162 5163 5164 5168 5179 5180 5192 5201 5209 5215 5223 5232
5250 5245 5239 5234 5230 5227 5224 5220 5217 5215 5209 5202 5197 5193 5189 5186 5181 5178 5172 5166 5158 5156 5157 5160 5160 5158 5158 5155 5153 5160 5164 5171 5179 5186 5195 5200 5207 5215
5243 5236 5228 5224 5222 5216 5213 5209 5206 5203 5198 5195 5188 5183 5177 5173 5169 5164 5159 5152 5147 5147 5145 5144 5144 5145 5147 5147 5147 5149 5151 5156 5164 5171 5179 5184 5192 5200
5235 5228 5222 5218 5213 5212 5208 5203 5197 5194 5190 5185 5178 5171 5167 5163 5157 5151 5144 5140 5137 5134 5132 5132 5131 5130 5129 5122 5131 5135 5137 5141 5148 5155 5163 5170 5176 5185
5231 5226 5220 5216 5212 5207 5201 5195 5189 5183 5178 5173 5165 5158 5152 5149 5142 5137 5131 5123 5123 5121 5120 5119 5117 5116 5116 5113 5109 5116 5122 5127 5132 5139 5146 5155 5161 5171
5226 5222 5216 5211 5205 5199 5191 5184 5178 5171 5165 5157 5151 5146 5138 5135 5128 5123 5117 5111 5109 5109 5106 5105 5103 5104 5106 5107 5101 5103 5108 5112 5117 5123 5130 5137 5145 5157
5219 5215 5209 5204 5197 5191 5182 5175 5168 5161 5154 5147 5138 5133 5128 5125 5117 5111 5105 5101 5099 5095 5093 5091 5091 5092 5093 5093 5091 5091 5095 5097 5103 5108 5112 5118 5125 5133
5213 5208 5201 5195 5189 5182 5175 5167 5160 5151 5145 5139 5132 5126 5119 5114 5108 5102 5096 5092 5087 5083 5081 5078 5077 5077 5077 5077 5076 5077 5079 5082 5085 5090 5097 5102 5107 5113